Location: Newark
(58.8333°N, 23.5833°E)
Time: 01:09:14
(UTC+00:00)

A-11 Canister half - Pass Details

Date: 21 November 2019
Orbit: 1515 x 1685 km, 47.2° (Epoch: 10 December)

Event Time Altitude Azimuth Distance (km) Brightness Sun altitude
Rises 17:20:31 0° 239° (WSW) 4,903 12.5 -25.9°
Reaches altitude 10° 17:23:53 10° 232° (SW) 3,930 11.7 -26.3°
Maximum altitude 17:33:02 41° 168° (SSE) 2,287 9.7 -27.5°
Enters shadow 17:35:22 37° 139° (SE) 2,430 9.6 -27.8°
Drops below altitude 10° 17:42:13 10° 103° (ESE) 3,939 - -28.7°
Sets 17:45:35 0° 96° (E) 4,916 - -29.1°
